Hourly Weather Kozlow

Today, 24 October, Saturday

Time Temperature Precipitation Wind Pressure Humidity
00:00 +10°C° 0 mm 2 mps 743 mmHg 87%
01:00 +10°C° 0 mm 2 mps 743 mmHg 87%
02:00 +10°C° 0 mm 2 mps 743 mmHg 86%
03:00 +10°C° 0 mm 2 mps 742 mmHg 85%
04:00 +10°C° 0 mm 2 mps 742 mmHg 84%
05:00 +10°C° 0 mm 2 mps 742 mmHg 85%
06:00 +12°C° 0 mm 2 mps 742 mmHg 85%
07:00 +11°C° 0 mm 3 mps 743 mmHg 85%
08:00 +11°C° 0.2 mm 3 mps 743 mmHg 85%
09:00 +12°C° 0.2 mm 3 mps 743 mmHg 85%
10:00 +12°C° 0.2 mm 4 mps 744 mmHg 85%
11:00 +13°C° 0 mm 4 mps 744 mmHg 82%
12:00 +14°C° 0 mm 4 mps 744 mmHg 79%
13:00 +17°C° 0 mm 4 mps 744 mmHg 76%
14:00 +16°C° 0 mm 3 mps 744 mmHg 80%
15:00 +15°C° 0 mm 2 mps 744 mmHg 83%
16:00 +14°C° 0 mm 2 mps 744 mmHg 87%
17:00 +14°C° 0 mm 2 mps 745 mmHg 89%
18:00 +13°C° 0 mm 1 mps 745 mmHg 90%
19:00 +12°C° 0 mm 1 mps 746 mmHg 92%
20:00 +12°C° 0 mm 1 mps 746 mmHg 92%
21:00 +12°C° 0 mm 1 mps 746 mmHg 92%
22:00 +11°C° 0 mm 1 mps 746 mmHg 93%
23:00 +11°C° 0 mm 1 mps 746 mmHg 93%

Tomorrow, 25 October, Sunday

Time Temperature Precipitation Wind Pressure Humidity
00:00 +11°C° 0 mm 1 mps 746 mmHg 93%
01:00 +11°C° 0 mm 1 mps 746 mmHg 93%
02:00 +11°C° 0 mm 1 mps 746 mmHg 93%
03:00 +9°C° 0 mm 0 mps 745 mmHg 93%
04:00 +9°C° 0 mm 0 mps 745 mmHg 94%
05:00 +10°C° 0 mm 1 mps 745 mmHg 94%
06:00 +10°C° 0 mm 1 mps 745 mmHg 94%
07:00 +10°C° 0 mm 1 mps 745 mmHg 94%
08:00 +12°C° 0 mm 2 mps 745 mmHg 89%
09:00 +13°C° 0 mm 2 mps 745 mmHg 83%
10:00 +14°C° 0 mm 3 mps 745 mmHg 77%
11:00 +14°C° 0 mm 3 mps 745 mmHg 74%
12:00 +16°C° 0 mm 3 mps 744 mmHg 72%
13:00 +15°C° 0 mm 4 mps 744 mmHg 69%
14:00 +16°C° 0 mm 3 mps 744 mmHg 73%
15:00 +14°C° 0 mm 3 mps 743 mmHg 77%
16:00 +13°C° 0 mm 3 mps 743 mmHg 81%
17:00 +13°C° 0 mm 3 mps 743 mmHg 84%
18:00 +12°C° 0 mm 3 mps 743 mmHg 87%
19:00 +12°C° 0 mm 3 mps 743 mmHg 90%
20:00 +12°C° 0 mm 3 mps 743 mmHg 90%
21:00 +12°C° 0 mm 3 mps 743 mmHg 90%
22:00 +12°C° 0 mm 3 mps 743 mmHg 89%
23:00 +12°C° 0 mm 3 mps 742 mmHg 90%

Day after tomorrow, 26 October, Monday

Time Temperature Precipitation Wind Pressure Humidity
00:00 +12°C° 0 mm 4 mps 742 mmHg 90%
01:00 +11°C° 0 mm 4 mps 742 mmHg 91%
02:00 +11°C° 0 mm 4 mps 742 mmHg 91%
03:00 +11°C° 0 mm 4 mps 742 mmHg 91%
04:00 +11°C° 0 mm 4 mps 741 mmHg 91%
05:00 +11°C° 0 mm 4 mps 741 mmHg 91%
06:00 +11°C° 0 mm 4 mps 741 mmHg 90%
07:00 +11°C° 0 mm 4 mps 741 mmHg 90%
08:00 +13°C° 0 mm 5 mps 741 mmHg 83%
09:00 +14°C° 0 mm 6 mps 741 mmHg 77%
10:00 +16°C° 0 mm 7 mps 741 mmHg 70%
11:00 +16°C° 0 mm 7 mps 741 mmHg 68%
12:00 +17°C° 0 mm 8 mps 741 mmHg 67%
13:00 +17°C° 0 mm 8 mps 741 mmHg 65%
14:00 +16°C° 0 mm 7 mps 741 mmHg 69%
15:00 +15°C° 0 mm 7 mps 740 mmHg 72%
16:00 +14°C° 0 mm 6 mps 740 mmHg 76%
17:00 +14°C° 0 mm 6 mps 740 mmHg 77%
18:00 +14°C° 0 mm 6 mps 741 mmHg 78%
19:00 +14°C° 0 mm 6 mps 741 mmHg 79%
20:00 +14°C° 0 mm 6 mps 741 mmHg 80%
21:00 +14°C° 0 mm 6 mps 741 mmHg 81%
22:00 +14°C° 0 mm 5 mps 741 mmHg 82%
23:00 +13°C° 0 mm 5 mps 741 mmHg 82%

, 27 October, Tuesday

Time Temperature Precipitation Wind Pressure Humidity
00:00 +13°C° 0 mm 5 mps 741 mmHg 82%
01:00 +13°C° 0 mm 5 mps 741 mmHg 82%
02:00 +13°C° 0 mm 5 mps 741 mmHg 83%
03:00 +13°C° 0 mm 5 mps 741 mmHg 84%
04:00 +12°C° 0 mm 5 mps 741 mmHg 84%
05:00 +12°C° 0 mm 5 mps 742 mmHg 85%
06:00 +12°C° 0 mm 4 mps 742 mmHg 86%
07:00 +12°C° 0 mm 4 mps 742 mmHg 87%
08:00 +14°C° 0 mm 5 mps 742 mmHg 79%
09:00 +15°C° 0 mm 5 mps 742 mmHg 71%
10:00 +17°C° 0 mm 6 mps 742 mmHg 63%
11:00 +19°C° 0 mm 6 mps 742 mmHg 61%
12:00 +19°C° 0 mm 5 mps 742 mmHg 59%
13:00 +20°C° 0 mm 5 mps 742 mmHg 57%
14:00 +17°C° 0 mm 5 mps 742 mmHg 62%
15:00 +17°C° 0 mm 4 mps 742 mmHg 67%
16:00 +15°C° 0 mm 4 mps 742 mmHg 72%
17:00 +14°C° 0 mm 4 mps 742 mmHg 74%
18:00 +14°C° 0 mm 4 mps 742 mmHg 77%
19:00 +13°C° 0 mm 3 mps 742 mmHg 80%
20:00 +13°C° 0 mm 3 mps 742 mmHg 81%
21:00 +12°C° 0 mm 3 mps 743 mmHg 82%
22:00 +12°C° 0 mm 3 mps 743 mmHg 83%
23:00 +13°C° 0 mm 2 mps 743 mmHg 84%

27 October, Tuesday

Time Temperature Precipitation Wind Pressure Humidity
00:00 +13°C° 0 mm 5 mps 741 mmHg 82%
01:00 +13°C° 0 mm 5 mps 741 mmHg 82%
02:00 +13°C° 0 mm 5 mps 741 mmHg 83%
03:00 +13°C° 0 mm 5 mps 741 mmHg 84%
04:00 +12°C° 0 mm 5 mps 741 mmHg 84%
05:00 +12°C° 0 mm 5 mps 742 mmHg 85%
06:00 +12°C° 0 mm 4 mps 742 mmHg 86%
07:00 +12°C° 0 mm 4 mps 742 mmHg 87%
08:00 +14°C° 0 mm 5 mps 742 mmHg 79%
09:00 +15°C° 0 mm 5 mps 742 mmHg 71%
10:00 +17°C° 0 mm 6 mps 742 mmHg 63%
11:00 +19°C° 0 mm 6 mps 742 mmHg 61%
12:00 +19°C° 0 mm 5 mps 742 mmHg 59%
13:00 +20°C° 0 mm 5 mps 742 mmHg 57%
14:00 +17°C° 0 mm 5 mps 742 mmHg 62%
15:00 +17°C° 0 mm 4 mps 742 mmHg 67%
16:00 +15°C° 0 mm 4 mps 742 mmHg 72%
17:00 +14°C° 0 mm 4 mps 742 mmHg 74%
18:00 +14°C° 0 mm 4 mps 742 mmHg 77%
19:00 +13°C° 0 mm 3 mps 742 mmHg 80%
20:00 +13°C° 0 mm 3 mps 742 mmHg 81%
21:00 +12°C° 0 mm 3 mps 743 mmHg 82%
22:00 +12°C° 0 mm 3 mps 743 mmHg 83%
23:00 +13°C° 0 mm 2 mps 743 mmHg 84%

28 October, Wednesday

Time Temperature Precipitation Wind Pressure Humidity
00:00 +12°C° 0 mm 2 mps 743 mmHg 85%
01:00 +12°C° 0 mm 2 mps 743 mmHg 85%
02:00 +12°C° 0 mm 1 mps 743 mmHg 86%
03:00 +12°C° 0 mm 1 mps 743 mmHg 87%
04:00 +11°C° 0 mm 1 mps 744 mmHg 87%
05:00 +11°C° 0 mm 1 mps 744 mmHg 88%
06:00 +11°C° 0 mm 1 mps 744 mmHg 89%
07:00 +10°C° 0 mm 0 mps 744 mmHg 90%
08:00 +11°C° 0 mm 0 mps 744 mmHg 85%
09:00 +13°C° 0 mm 0 mps 745 mmHg 80%
10:00 +14°C° 0 mm 0 mps 745 mmHg 75%
11:00 +16°C° 0 mm 1 mps 744 mmHg 72%
12:00 +18°C° 0 mm 1 mps 744 mmHg 68%
13:00 +19°C° 0 mm 1 mps 744 mmHg 65%
14:00 +18°C° 0 mm 1 mps 744 mmHg 69%
15:00 +16°C° 0 mm 1 mps 744 mmHg 73%
16:00 +15°C° 0 mm 1 mps 744 mmHg 77%
17:00 +14°C° 0 mm 1 mps 744 mmHg 80%
18:00 +14°C° 0 mm 1 mps 744 mmHg 83%
19:00 +13°C° 0 mm 1 mps 744 mmHg 86%
20:00 +12°C° 0 mm 1 mps 745 mmHg 87%
21:00 +12°C° 0 mm 1 mps 745 mmHg 88%
22:00 +12°C° 0 mm 1 mps 745 mmHg 88%
23:00 +12°C° 0 mm 1 mps 745 mmHg 89%

29 October, Thursday

Time Temperature Precipitation Wind Pressure Humidity
00:00 +11°C° 0 mm 1 mps 745 mmHg 90%
01:00 +11°C° 0 mm 1 mps 745 mmHg 90%
02:00 +11°C° 0 mm 1 mps 745 mmHg 91%
03:00 +11°C° 0 mm 1 mps 745 mmHg 92%
04:00 +10°C° 0 mm 1 mps 745 mmHg 93%
05:00 +10°C° 0 mm 1 mps 745 mmHg 93%
06:00 +11°C° 0 mm 1 mps 746 mmHg 93%
07:00 +11°C° 0 mm 1 mps 746 mmHg 93%
08:00 +12°C° 0 mm 1 mps 746 mmHg 87%
09:00 +13°C° 0 mm 1 mps 746 mmHg 81%
10:00 +15°C° 0 mm 1 mps 746 mmHg 75%
11:00 +16°C° 0 mm 1 mps 746 mmHg 70%
12:00 +16°C° 0 mm 2 mps 746 mmHg 65%
13:00 +17°C° 0 mm 2 mps 747 mmHg 61%
14:00 +16°C° 0 mm 2 mps 747 mmHg 64%
15:00 +16°C° 0 mm 2 mps 747 mmHg 67%
16:00 +15°C° 0 mm 1 mps 747 mmHg 70%
17:00 +14°C° 0 mm 1 mps 747 mmHg 71%
18:00 +13°C° 0 mm 1 mps 748 mmHg 73%
19:00 +12°C° 0 mm 1 mps 748 mmHg 74%
20:00 +12°C° 0 mm 1 mps 748 mmHg 74%
21:00 +13°C° 0 mm 2 mps 749 mmHg 74%
22:00 +13°C° 0 mm 2 mps 749 mmHg 74%
23:00 +12°C° 0 mm 2 mps 749 mmHg 77%
Show more